Montevideo, MN

10:05 AM CDT on April 24, 2017 (GMT -0500)
Montevideo-Chippewa County

Weather History for KMVE - February, 2014

Change the Weather History Date:

Sunday, February 23, 2014

  Actual Average Record
Temperature  
Mean Temperature 14 °F -  
Max Temperature 24 °F 30 °F 55 °F (1976)
Min Temperature 3 °F 11 °F -23 °F (1966)
Degree Days  
Heating Degree Days 52    
Moisture  
Dew Point 4 °F    
Average Humidity 70    
Maximum Humidity 85    
Minimum Humidity 50    
Precipitation  
Precipitation 0.00 in - - ()
Sea Level Pressure  
Sea Level Pressure 30.28 in    
Wind  
Wind Speed 9 mph (NNW)    
Max Wind Speed 17 mph    
Max Gust Speed 23 mph    
Visibility 10 miles    
Events      
Averages and records for this station are not official NWS values.
T = Trace of Precipitation, MM = Missing Value Source: NWS Daily Summary

Daily Weather History Graph

Daily Weather History Graph

Search for Another Location

Airport or City:

Trip Planner

Search our weather history database for the weather conditions in past years. The results will help you decide how hot, cold, wet, or windy it might be!

Date:

Astronomy

Feb. 23, 2014 Rise Set
Actual Time 7:10 AM CST 6:02 PM CST
Civil Twilight 6:41 AM CST 6:31 PM CST
Nautical Twilight 6:07 AM CST 7:05 PM CST
Astronomical Twilight 5:33 AM CST 7:39 PM CST
Moon 2:17 AM CST (2/23) 11:57 AM CST (2/23)
Length of Visible Light 11h 50m
Length of Day
10h 51m
Last Quarter, 38% of the Moon is Illuminated
Feb 23
Last Quarter
Mar 1
New
Mar 8
First Quarter
Mar 16
Full
Mar 23
Last Quarter

Hourly Weather History & Observations

Time (CST) Temp. Windchill Dew Point Humidity Pressure Visibility Wind Dir Wind Speed Gust Speed Precip Events Conditions
12:14 AM 8.6 °F 0.1 °F 1.4 °F 73% 30.20 in 10.0 mi NNW 4.6 mph - N/A   Clear
12:34 AM 6.8 °F -0.1 °F 1.4 °F 79% 30.20 in 10.0 mi NNW 3.5 mph - N/A   Clear
12:54 AM 6.8 °F -3.5 °F 1.4 °F 79% 30.21 in 10.0 mi NW 5.8 mph - N/A   Clear
1:14 AM 6.8 °F -2.0 °F 1.4 °F 79% 30.21 in 10.0 mi NNW 4.6 mph - N/A   Clear
1:34 AM 6.8 °F -4.8 °F 1.4 °F 79% 30.22 in 10.0 mi NNW 6.9 mph - N/A   Clear
1:54 AM 6.8 °F -3.5 °F 1.4 °F 79% 30.22 in 10.0 mi NW 5.8 mph - N/A   Clear
2:14 AM 6.8 °F -0.1 °F 1.4 °F 79% 30.22 in 10.0 mi NNW 3.5 mph - N/A   Clear
2:34 AM 6.8 °F -4.8 °F 1.4 °F 79% 30.22 in 10.0 mi NW 6.9 mph - N/A   Clear
2:54 AM 6.8 °F -5.9 °F 1.4 °F 79% 30.22 in 10.0 mi NNW 8.1 mph - N/A   Clear
3:14 AM 6.8 °F -4.8 °F 1.4 °F 79% 30.22 in 10.0 mi NW 6.9 mph - N/A   Clear
3:34 AM 6.8 °F -3.5 °F 1.4 °F 79% 30.22 in 10.0 mi NW 5.8 mph - N/A   Clear
3:54 AM 6.8 °F -3.5 °F 1.4 °F 79% 30.22 in 10.0 mi NW 5.8 mph - N/A   Clear
4:14 AM 6.8 °F -2.0 °F 1.4 °F 79% 30.22 in 10.0 mi NW 4.6 mph - N/A   Clear
4:34 AM 6.8 °F -3.5 °F 1.4 °F 79% 30.22 in 10.0 mi NNW 5.8 mph - N/A   Clear
4:54 AM 6.8 °F -4.8 °F 1.4 °F 79% 30.23 in 10.0 mi NNW 6.9 mph - N/A   Clear
5:14 AM 6.8 °F -5.9 °F 1.4 °F 79% 30.23 in 10.0 mi NNW 8.1 mph - N/A   Scattered Clouds
5:34 AM 5.0 °F -9.1 °F 1.4 °F 85% 30.23 in 10.0 mi NNW 9.2 mph - N/A   Scattered Clouds
5:54 AM 6.8 °F -6.9 °F 1.4 °F 79% 30.23 in 10.0 mi NNW 9.2 mph - N/A   Clear
6:14 AM 5.0 °F -8.1 °F 1.4 °F 85% 30.24 in 10.0 mi NNW 8.1 mph - N/A   Clear
6:34 AM 5.0 °F -8.1 °F 1.4 °F 85% 30.24 in 10.0 mi NNW 8.1 mph - N/A   Clear
6:54 AM 5.0 °F -9.1 °F -0.4 °F 78% 30.25 in 10.0 mi NNW 9.2 mph - N/A   Clear
7:14 AM 3.2 °F -9.1 °F -0.4 °F 85% 30.25 in 10.0 mi NNW 6.9 mph - N/A   Clear
7:34 AM 6.8 °F -4.8 °F 1.4 °F 79% 30.26 in 10.0 mi NNW 6.9 mph - N/A   Clear
7:54 AM 6.8 °F -5.9 °F 1.4 °F 79% 30.26 in 10.0 mi NW 8.1 mph - N/A   Clear
8:14 AM 8.6 °F -3.7 °F 1.4 °F 73% 30.27 in 10.0 mi NW 8.1 mph - N/A   Clear
8:34 AM 10.4 °F -2.4 °F 1.4 °F 67% 30.28 in 10.0 mi NNW 9.2 mph 17.3 mph N/A   Clear
8:54 AM 10.4 °F -5.4 °F 1.4 °F 67% 30.28 in 10.0 mi NNW 13.8 mph - N/A   Clear
9:14 AM 10.4 °F -3.3 °F 3.2 °F 73% 30.29 in 10.0 mi NNW 10.4 mph 20.7 mph N/A   Clear
9:34 AM 12.2 °F -2.5 °F 3.2 °F 67% 30.29 in 10.0 mi NNW 12.7 mph 21.9 mph N/A   Clear
9:54 AM 14.0 °F 0.5 °F 3.2 °F 62% 30.29 in 10.0 mi NNW 11.5 mph 21.9 mph N/A   Clear
10:14 AM 14.0 °F -1.4 °F 3.2 °F 62% 30.30 in 10.0 mi NNW 15.0 mph 18.4 mph N/A   Clear
10:34 AM 15.8 °F 2.1 °F 5.0 °F 62% 30.30 in 10.0 mi NNW 12.7 mph 18.4 mph N/A   Clear
10:54 AM 15.8 °F 1.4 °F 5.0 °F 62% 30.30 in 10.0 mi NNW 13.8 mph 18.4 mph N/A   Clear
11:14 AM 17.6 °F 3.7 °F 6.8 °F 63% 30.30 in 10.0 mi NW 13.8 mph 20.7 mph N/A   Clear
11:34 AM 17.6 °F 3.2 °F 6.8 °F 63% 30.30 in 10.0 mi NNW 15.0 mph 18.4 mph N/A   Clear
11:54 AM 19.4 °F 6.6 °F 6.8 °F 58% 30.30 in 10.0 mi NNW 12.7 mph 19.6 mph N/A   Clear
12:14 PM 19.4 °F 5.5 °F 6.8 °F 58% 30.30 in 10.0 mi NNW 15.0 mph 20.7 mph N/A   Clear
12:34 PM 19.4 °F 5.5 °F 6.8 °F 58% 30.29 in 10.0 mi NNW 15.0 mph 23.0 mph N/A   Clear
12:54 PM 21.2 °F 8.9 °F 8.6 °F 58% 30.29 in 10.0 mi NNW 12.7 mph 18.4 mph N/A   Clear
1:14 PM 21.2 °F 8.3 °F 8.6 °F 58% 30.29 in 10.0 mi NW 13.8 mph 20.7 mph N/A   Clear
1:34 PM 23.0 °F 9.6 °F 8.6 °F 54% 30.28 in 10.0 mi NNW 16.1 mph 20.7 mph N/A   Clear
1:54 PM 23.0 °F 10.1 °F 8.6 °F 54% 30.28 in 10.0 mi NW 15.0 mph 20.7 mph N/A   Clear
2:14 PM 23.0 °F 10.6 °F 8.6 °F 54% 30.28 in 10.0 mi NNW 13.8 mph 21.9 mph N/A   Clear
2:34 PM 24.8 °F 11.9 °F 8.6 °F 50% 30.28 in 10.0 mi NNW 16.1 mph 19.6 mph N/A   Clear
2:54 PM 24.8 °F 12.9 °F 10.4 °F 54% 30.28 in 10.0 mi NNW 13.8 mph 21.9 mph N/A   Clear
3:14 PM 24.8 °F 13.4 °F 10.4 °F 54% 30.28 in 10.0 mi NNW 12.7 mph 18.4 mph N/A   Clear
3:34 PM 24.8 °F 11.5 °F 10.4 °F 54% 30.28 in 10.0 mi NW 17.3 mph 23.0 mph N/A   Clear
3:54 PM 24.8 °F 11.9 °F 10.4 °F 54% 30.28 in 10.0 mi NW 16.1 mph 23.0 mph N/A   Clear
4:14 PM 24.8 °F 14.6 °F 10.4 °F 54% 30.28 in 10.0 mi NNW 10.4 mph 20.7 mph N/A   Clear
4:34 PM 24.8 °F 12.9 °F 10.4 °F 54% 30.28 in 10.0 mi NNW 13.8 mph 21.9 mph N/A   Scattered Clouds
4:54 PM 24.8 °F 14.0 °F 10.4 °F 54% 30.28 in 10.0 mi NNW 11.5 mph 21.9 mph N/A   Scattered Clouds
5:14 PM 23.0 °F 12.4 °F 8.6 °F 54% 30.28 in 10.0 mi NNW 10.4 mph 19.6 mph N/A   Scattered Clouds
5:34 PM 21.2 °F 10.1 °F 8.6 °F 58% 30.29 in 10.0 mi NNW 10.4 mph 16.1 mph N/A   Clear
5:54 PM 19.4 °F 8.6 °F 8.6 °F 63% 30.29 in 10.0 mi NNW 9.2 mph 16.1 mph N/A   Clear
6:14 PM 17.6 °F 5.7 °F 8.6 °F 68% 30.29 in 10.0 mi NNW 10.4 mph - N/A   Clear
6:33 PM 17.6 °F 7.3 °F 6.8 °F 63% 30.30 in 10.0 mi NNW 8.1 mph - N/A   Scattered Clouds
6:54 PM 15.8 °F 5.1 °F 6.8 °F 68% 30.30 in 10.0 mi NNW 8.1 mph - N/A   Overcast
7:14 PM 15.8 °F 5.1 °F 6.8 °F 68% 30.31 in 10.0 mi North 8.1 mph - N/A   Mostly Cloudy
7:33 PM 14.0 °F 5.1 °F 6.8 °F 73% 30.31 in 10.0 mi North 5.8 mph - N/A   Scattered Clouds
7:54 PM 14.0 °F 1.2 °F 6.8 °F 73% 30.32 in 10.0 mi North 10.4 mph - N/A   Clear
8:14 PM 12.2 °F -1.0 °F 6.8 °F 79% 30.32 in 10.0 mi North 10.4 mph - N/A   Clear
8:34 PM 12.2 °F -1.0 °F 5.0 °F 73% 30.33 in 10.0 mi North 10.4 mph - N/A   Clear
8:54 PM 10.4 °F -2.4 °F 5.0 °F 79% 30.33 in 10.0 mi North 9.2 mph - N/A   Clear
9:14 PM 10.4 °F -3.3 °F 3.2 °F 73% 30.33 in 10.0 mi North 10.4 mph 16.1 mph N/A   Clear
9:34 PM 10.4 °F -5.4 °F 3.2 °F 73% 30.33 in 10.0 mi North 13.8 mph - N/A   Clear
9:54 PM 10.4 °F -2.4 °F 3.2 °F 73% 30.34 in 10.0 mi North 9.2 mph - N/A   Clear
10:14 PM 8.6 °F -7.0 °F 3.2 °F 79% 30.34 in 10.0 mi North 12.7 mph - N/A   Clear
10:34 PM 8.6 °F -6.3 °F 3.2 °F 79% 30.33 in 10.0 mi North 11.5 mph - N/A   Clear
10:54 PM 8.6 °F -7.0 °F 1.4 °F 73% 30.34 in 10.0 mi North 12.7 mph - N/A   Clear
11:14 PM 8.6 °F -6.3 °F 1.4 °F 73% 30.34 in 10.0 mi North 11.5 mph 16.1 mph N/A   Clear
11:34 PM 6.8 °F -10.0 °F 1.4 °F 79% 30.34 in 10.0 mi North 13.8 mph - N/A   Clear
11:54 PM 6.8 °F -8.6 °F 1.4 °F 79% 30.34 in 10.0 mi North 11.5 mph 17.3 mph N/A   Clear